Location: Esp�n
(42.4593°N, 0.2047°W)
Time: 03:13:17
(UTC+00:00)

Cosmos 1315 Rocket - Pass Details

Date: 07 June 2020
Orbit: 529 x 569 km, 81.2° (Epoch: 04 July)

Event Time Altitude Azimuth Distance (km) Brightness Sun altitude
Rises 02:13:53 0° 345° (NNW) 2,683 7.0 -17.8°
Reaches altitude 10° 02:16:03 10° 342° (NNW) 1,791 5.9 -17.6°
Maximum altitude 02:19:55 56° 263° (W) 639 2.9 -17.2°
Enters shadow 02:21:09 37° 206° (SSW) 837 3.2 -17.1°
